Share

Bonnyman, KY (41719)

KKYJACKS3 Elev 994 ft | 37.41 °N, 83.42 °W | Change Station

Current weather conditions updated 3 minutes ago

Clear
Clear
50.8 °F
Feels Like 50.8 °F
N
0.0
Wind Variable Wind from North
Gusts 0.0 mph
Sunrise 6:50 AM
Sunset 8:13 PM
Moon Waning Gibbous

Today is forecast to be nearly the same temperature as yesterday. A few showers developing late tonight.

Pressure 30.11 in
Visibility 10.0 miles
Clouds Clear
Dew Point 42 °F
Humidity 72%
Rainfall 0.00 in
Snow Depth Not available.
UV 0 out of 16
Pollen 10.30 out of 12
Air Quality Not available.
Flu Activity Sporadic
METAR KJKL 210353Z AUTO VRB03KT 10SM CLR 19/M04 A3014 RMK AO2 SLP194 T01941039

More Conditions Fewer Conditions

Pressure 30.11 in
Visibility 10.0 miles
Clouds Clear
Dew Point 42 °F
Humidity 72%
Rainfall 0.00 in
Snow Depth Not available.
UV 0 out of 16
Pollen 10.30 out of 12
Air Quality Not available.
Flu Activity Sporadic
METAR KJKL 210353Z AUTO VRB03KT 10SM CLR 19/M04 A3014 RMK AO2 SLP194 T01941039

More Conditions Fewer Conditions

10-Day Weather Forecast

Almanac

Astronomy

Apr. 21, 2014 Rise Set
Actual Time 6:50 AM EDT 8:13 PM EDT
Civil Twilight 6:23 AM EDT 8:40 PM EDT
Nautical Twilight 5:50 AM EDT 9:13 PM EDT
Astronomical Twilight 5:16 AM EDT 9:48 PM EDT
Moon 1:40 AM EDT 12:17 PM EDT
Length of Visible Light 14h 17m
Length of Day
13h 23m
Tomorrow will be 2m 12s longer.
Waning Gibbous, 63% of the Moon is Illuminated
Today
Waning Gibbous
Apr 22
Last Quarter
Apr 29
New
May 6
First Quarter
May 14
Full

Today's Extremes

State Highs State Lows

Community

  • Snowy Robin
    Snowy Robin
  • Sun Pillar and Geese
    Sun Pillar and Geese
  • Showers on the Way
    Showers on the Way
  • Easter Morning Fog
    Easter Morning Fog
  • Easter Dance
    Easter Dance

WunderPhotos

Upload Photos

1,703,559 photos uploaded!

WunderBlogs® & News

Nearby

Snow Depth

Station Depth Elevation
No new snow has been reported.

Coastal Water Temperatures

Place Temperature
No Stations Reporting

Earthquake Activity

City Distance Mag. Time & Date
No recent earthquake activity has been reported nearby.
Minimum magnitude displayed is 2.5.

Nearby Weather Stations

Station Location Temp. Dew Point Humidity Wind Precip. Elev Updated Type
Talbert, KY 50.8 °F 42 °F 72% North  at  0.0 mph 0.00 in / hr 994 ft 12:40 AM EDT Normal
RAWS JACKSON CO AP KY, Jackson, KY 66 °F 25 °F 21% West  at  3 mph 0.00 in / hr 1388 ft 11:15 PM EDT MADIS
RAWS PEABODY KY, Big Creek, KY 62 °F 37 °F 40% ESE  at  2 mph 0.00 in / hr 1464 ft 12:01 AM EDT MADIS

Show More Stations Show Fewer Stations

What do you think?

We're not finished. Please let us know what you like, what you don't like, and what you are still missing.